Time,TemperatureF,DewpointF,PressureIn,WindDirection,WindDirectionDegrees,WindSpeedMPH,WindSpeedGustMPH,Humidity,HourlyPrecipIn,Conditions,Clouds,dailyrainin,SoftwareType,DateUTC
2013-11-07 00:01:00,36.3,33.7,30.28,West,275,2.0,3.0,90,0.00,,,0.00,VWS V14.01,2013-11-07 06:01:00,
2013-11-07 00:06:00,35.6,34.3,30.29,West,275,2.0,5.0,95,0.00,,,0.00,VWS V14.01,2013-11-07 06:06:00,
2013-11-07 00:11:00,34.6,34.6,30.29,West,274,3.0,5.0,100,0.00,,,0.00,VWS V14.01,2013-11-07 06:11:00,
2013-11-07 00:16:00,34.0,34.0,30.29,West,274,0.0,5.0,100,0.00,,,0.00,VWS V14.01,2013-11-07 06:16:00,
2013-11-07 00:21:00,33.7,33.7,30.29,West,274,0.0,1.0,100,0.00,,,0.00,VWS V14.01,2013-11-07 06:21:00,
2013-11-07 00:26:00,33.5,33.5,30.29,West,274,0.0,1.0,100,0.00,,,0.00,VWS V14.01,2013-11-07 06:26:00,
2013-11-07 00:31:00,33.7,33.7,30.29,West,274,0.0,1.0,100,0.00,,,0.00,VWS V14.01,2013-11-07 06:31:00,
2013-11-07 00:36:00,34.0,34.0,30.29,West,274,0.0,0.0,100,0.00,,,0.00,VWS V14.01,2013-11-07 06:36:00,
2013-11-07 00:41:00,34.1,34.1,30.29,West,274,0.0,1.0,100,0.00,,,0.00,VWS V14.01,2013-11-07 06:41:00,
2013-11-07 00:46:00,34.4,34.4,30.29,West,274,1.0,2.0,100,0.00,,,0.00,VWS V14.01,2013-11-07 06:46:00,
2013-11-07 00:51:00,34.9,34.9,30.29,West,274,1.0,2.0,100,0.00,,,0.00,VWS V14.01,2013-11-07 06:51:00,
2013-11-07 00:56:00,35.2,35.2,30.29,West,274,1.0,2.0,100,0.00,,,0.00,VWS V14.01,2013-11-07 06:56:00,
2013-11-07 01:01:00,35.5,35.0,30.29,West,274,0.0,2.0,98,0.00,,,0.00,VWS V14.01,2013-11-07 07:01:00,
2013-11-07 01:06:00,35.8,35.0,30.29,West,274,0.0,3.0,97,0.00,,,0.00,VWS V14.01,2013-11-07 07:06:00,
2013-11-07 01:11:00,36.2,34.4,30.29,West,274,2.0,3.0,93,0.00,,,0.00,VWS V14.01,2013-11-07 07:11:00,
2013-11-07 01:16:00,36.5,33.6,30.29,West,274,0.0,3.0,89,0.00,,,0.00,VWS V14.01,2013-11-07 07:16:00,
2013-11-07 01:21:00,35.9,33.0,30.27,West,274,2.0,3.0,89,0.00,,,0.00,VWS V14.01,2013-11-07 07:21:00,
2013-11-07 01:26:00,34.9,34.9,30.27,West,274,0.0,3.0,100,0.00,,,0.00,VWS V14.01,2013-11-07 07:26:00,
2013-11-07 01:31:00,34.6,34.6,30.27,West,274,1.0,3.0,100,0.00,,,0.00,VWS V14.01,2013-11-07 07:31:00,
2013-11-07 01:36:00,34.4,34.2,30.28,West,274,2.0,3.0,99,0.00,,,0.00,VWS V14.01,2013-11-07 07:36:00,
2013-11-07 01:41:00,33.4,33.4,30.28,West,274,4.0,5.0,100,0.00,,,0.00,VWS V14.01,2013-11-07 07:41:00,
2013-11-07 01:46:00,33.1,33.1,30.28,West,274,1.0,5.0,100,0.00,,,0.00,VWS V14.01,2013-11-07 07:46:00,
2013-11-07 01:51:00,33.1,33.1,30.30,West,274,0.0,1.0,100,0.00,,,0.00,VWS V14.01,2013-11-07 07:51:00,
2013-11-07 01:56:00,33.5,33.5,30.30,West,274,0.0,2.0,100,0.00,,,0.00,VWS V14.01,2013-11-07 07:56:00,
2013-11-07 02:01:00,34.1,34.1,30.30,West,274,0.0,2.0,100,0.00,,,0.00,VWS V14.01,2013-11-07 08:01:00,
2013-11-07 02:06:00,34.7,34.7,30.30,West,274,2.0,2.0,100,0.00,,,0.00,VWS V14.01,2013-11-07 08:06:00,
2013-11-07 02:11:00,35.6,33.8,30.30,West,274,0.0,2.0,93,0.00,,,0.00,VWS V14.01,2013-11-07 08:11:00,
2013-11-07 02:16:00,36.0,33.4,30.30,West,274,1.0,2.0,90,0.00,,,0.00,VWS V14.01,2013-11-07 08:16:00,
2013-11-07 02:21:00,36.2,33.8,30.29,West,274,0.0,2.0,91,0.00,,,0.00,VWS V14.01,2013-11-07 08:21:00,
2013-11-07 02:26:00,36.2,34.4,30.29,West,274,1.0,2.0,93,0.00,,,0.00,VWS V14.01,2013-11-07 08:26:00,
2013-11-07 02:31:00,36.2,34.4,30.29,West,274,3.0,3.0,93,0.00,,,0.00,VWS V14.01,2013-11-07 08:31:00,
2013-11-07 02:36:00,36.2,34.4,30.30,West,274,0.0,2.0,93,0.00,,,0.00,VWS V14.01,2013-11-07 08:36:00,
2013-11-07 02:41:00,36.3,34.2,30.30,West,275,2.0,3.0,92,0.00,,,0.00,VWS V14.01,2013-11-07 08:41:00,
2013-11-07 02:46:00,36.5,33.8,30.30,West,275,0.0,3.0,90,0.00,,,0.00,VWS V14.01,2013-11-07 08:46:00,
2013-11-07 02:51:00,36.8,33.6,30.29,West,281,0.0,3.0,88,0.00,,,0.00,VWS V14.01,2013-11-07 08:51:00,
2013-11-07 02:56:00,36.6,33.4,30.29,West,281,0.0,3.0,88,0.00,,,0.00,VWS V14.01,2013-11-07 08:56:00,
2013-11-07 03:01:00,36.5,34.1,30.29,West,281,0.0,3.0,91,0.00,,,0.00,VWS V14.01,2013-11-07 09:01:00,
2013-11-07 03:06:00,36.3,34.2,30.29,West,281,0.0,2.0,92,0.00,,,0.00,VWS V14.01,2013-11-07 09:06:00,
2013-11-07 03:11:00,36.2,34.1,30.29,West,281,0.0,2.0,92,0.00,,,0.00,VWS V14.01,2013-11-07 09:11:00,
2013-11-07 03:16:00,36.2,34.1,30.29,West,281,0.0,2.0,92,0.00,,,0.00,VWS V14.01,2013-11-07 09:16:00,
2013-11-07 03:21:00,36.5,33.8,30.29,WNW,287,1.0,2.0,90,0.00,,,0.00,VWS V14.01,2013-11-07 09:21:00,
2013-11-07 03:26:00,36.5,33.8,30.29,WNW,287,1.0,3.0,90,0.00,,,0.00,VWS V14.01,2013-11-07 09:26:00,
2013-11-07 03:31:00,36.8,33.6,30.29,WNW,287,2.0,5.0,88,0.00,,,0.00,VWS V14.01,2013-11-07 09:31:00,
2013-11-07 03:36:00,36.8,33.6,30.29,WNW,287,0.0,2.0,88,0.00,,,0.00,VWS V14.01,2013-11-07 09:36:00,
2013-11-07 03:41:00,36.6,33.7,30.29,WNW,287,0.0,2.0,89,0.00,,,0.00,VWS V14.01,2013-11-07 09:41:00,
2013-11-07 03:46:00,36.6,34.2,30.29,WNW,287,2.0,2.0,91,0.00,,,0.00,VWS V14.01,2013-11-07 09:46:00,
2013-11-07 03:51:00,36.8,34.2,30.29,NNW,344,2.0,5.0,90,0.00,,,0.00,VWS V14.01,2013-11-07 09:51:00,
2013-11-07 03:56:00,37.0,33.8,30.29,NNW,344,4.0,7.0,88,0.00,,,0.00,VWS V14.01,2013-11-07 09:56:00,
2013-11-07 04:01:00,37.3,33.8,30.29,North,356,7.0,10.0,87,0.00,,,0.00,VWS V14.01,2013-11-07 10:01:00,
2013-11-07 04:06:00,37.5,33.4,30.29,NNW,346,7.0,8.0,85,0.00,,,0.00,VWS V14.01,2013-11-07 10:06:00,
2013-11-07 04:11:00,37.5,33.4,30.29,North,353,4.0,10.0,85,0.00,,,0.00,VWS V14.01,2013-11-07 10:11:00,
2013-11-07 04:16:00,37.3,32.9,30.29,NNW,347,3.0,10.0,84,0.00,,,0.00,VWS V14.01,2013-11-07 10:16:00,
2013-11-07 04:21:00,37.0,33.2,30.30,North,350,4.0,7.0,86,0.00,,,0.00,VWS V14.01,2013-11-07 10:21:00,
2013-11-07 04:26:00,36.5,34.1,30.30,NNW,340,5.0,7.0,91,0.00,,,0.00,VWS V14.01,2013-11-07 10:26:00,
2013-11-07 04:31:00,36.2,33.8,30.30,NNW,330,5.0,7.0,91,0.00,,,0.00,VWS V14.01,2013-11-07 10:31:00,
2013-11-07 04:36:00,36.0,33.9,30.31,NNW,343,2.0,6.0,92,0.00,,,0.00,VWS V14.01,2013-11-07 10:36:00,
2013-11-07 04:41:00,35.9,34.3,30.31,NNW,346,2.0,6.0,94,0.00,,,0.00,VWS V14.01,2013-11-07 10:41:00,
2013-11-07 04:46:00,35.8,34.0,30.31,NNW,346,0.0,6.0,93,0.00,,,0.00,VWS V14.01,2013-11-07 10:46:00,
2013-11-07 04:51:00,35.6,34.6,30.31,NNW,346,0.0,3.0,96,0.00,,,0.00,VWS V14.01,2013-11-07 10:51:00,
2013-11-07 04:56:00,35.3,35.3,30.31,NNW,346,0.0,3.0,100,0.00,,,0.00,VWS V14.01,2013-11-07 10:56:00,
2013-11-07 05:01:00,34.7,34.7,30.31,NNW,346,0.0,3.0,100,0.00,,,0.00,VWS V14.01,2013-11-07 11:01:00,
2013-11-07 05:06:00,34.4,34.4,30.33,NNW,346,0.0,0.0,100,0.00,,,0.00,VWS V14.01,2013-11-07 11:06:00,
2013-11-07 05:11:00,34.1,34.1,30.33,NNW,346,0.0,0.0,100,0.00,,,0.00,VWS V14.01,2013-11-07 11:11:00,
2013-11-07 05:16:00,34.1,34.1,30.33,NNW,346,0.0,2.0,100,0.00,,,0.00,VWS V14.01,2013-11-07 11:16:00,
2013-11-07 05:21:00,34.3,34.3,30.35,NNW,346,0.0,1.0,100,0.00,,,0.00,VWS V14.01,2013-11-07 11:21:00,
2013-11-07 05:26:00,34.3,34.3,30.35,NNW,346,0.0,1.0,100,0.00,,,0.00,VWS V14.01,2013-11-07 11:26:00,
2013-11-07 05:31:00,34.3,34.3,30.35,NNW,344,2.0,3.0,100,0.00,,,0.00,VWS V14.01,2013-11-07 11:31:00,
2013-11-07 05:34:00,34.3,34.3,30.35,NNW,347,0.0,3.0,100,0.00,,,0.00,VWS V14.01,2013-11-07 11:34:00,
2013-11-07 05:39:00,34.3,34.3,30.35,NNW,347,0.0,3.0,100,0.00,,,0.00,VWS V14.01,2013-11-07 11:39:00,
2013-11-07 05:44:00,34.1,34.1,30.35,NNW,347,0.0,3.0,100,0.00,,,0.00,VWS V14.01,2013-11-07 11:44:00,
2013-11-07 05:49:00,34.0,34.0,30.36,NNW,347,0.0,0.0,100,0.00,,,0.00,VWS V14.01,2013-11-07 11:49:00,
2013-11-07 05:54:00,33.7,33.7,30.36,NNW,347,0.0,0.0,100,0.00,,,0.00,VWS V14.01,2013-11-07 11:54:00,
2013-11-07 05:59:00,33.4,33.4,30.36,NNW,347,0.0,0.0,100,0.00,,,0.00,VWS V14.01,2013-11-07 11:59:00,
2013-11-07 06:04:00,33.4,33.4,30.36,NNW,347,2.0,2.0,100,0.00,,,0.00,VWS V14.01,2013-11-07 12:04:00,
2013-11-07 06:09:00,33.5,33.5,30.36,NNW,343,5.0,5.0,100,0.00,,,0.00,VWS V14.01,2013-11-07 12:09:00,
2013-11-07 06:14:00,33.8,33.8,30.36,NNW,336,2.0,5.0,100,0.00,,,0.00,VWS V14.01,2013-11-07 12:14:00,
2013-11-07 06:19:00,34.0,34.0,30.37,NNW,343,2.0,5.0,100,0.00,,,0.00,VWS V14.01,2013-11-07 12:19:00,
2013-11-07 06:24:00,34.0,34.0,30.37,North,359,2.0,6.0,100,0.00,,,0.00,VWS V14.01,2013-11-07 12:24:00,
2013-11-07 06:29:00,34.0,34.0,30.37,North,353,2.0,8.0,100,0.00,,,0.00,VWS V14.01,2013-11-07 12:29:00,
2013-11-07 06:34:00,34.0,34.0,30.37,North,352,1.0,4.0,100,0.00,,,0.00,VWS V14.01,2013-11-07 12:34:00,
2013-11-07 06:39:00,33.8,33.8,30.37,North,350,2.0,4.0,100,0.00,,,0.00,VWS V14.01,2013-11-07 12:39:00,
2013-11-07 06:44:00,33.8,33.8,30.37,NNW,340,4.0,7.0,100,0.00,,,0.00,VWS V14.01,2013-11-07 12:44:00,
2013-11-07 06:49:00,33.7,33.7,30.38,NNW,330,0.0,2.0,100,0.00,,,0.00,VWS V14.01,2013-11-07 12:49:00,
2013-11-07 06:54:00,33.5,33.5,30.38,NNW,330,1.0,3.0,100,0.00,,,0.00,VWS V14.01,2013-11-07 12:54:00,
2013-11-07 06:59:00,33.4,33.4,30.38,NNW,330,0.0,3.0,100,0.00,,,0.00,VWS V14.01,2013-11-07 12:59:00,
2013-11-07 07:04:00,33.1,33.1,30.39,NNW,330,1.0,1.0,100,0.00,,,0.00,VWS V14.01,2013-11-07 13:04:00,
2013-11-07 07:09:00,32.9,32.9,30.39,NNW,330,2.0,2.0,100,0.00,,,0.00,VWS V14.01,2013-11-07 13:09:00,
2013-11-07 07:14:00,32.7,32.7,30.39,NNW,329,3.0,3.0,100,0.00,,,0.00,VWS V14.01,2013-11-07 13:14:00,
2013-11-07 07:19:00,32.5,32.5,30.40,NNW,329,1.0,2.0,100,0.00,,,0.00,VWS V14.01,2013-11-07 13:19:00,
2013-11-07 07:24:00,32.5,32.5,30.40,NNW,329,0.0,2.0,100,0.00,,,0.00,VWS V14.01,2013-11-07 13:24:00,
2013-11-07 07:29:00,32.5,32.5,30.40,NNW,329,0.0,2.0,100,0.00,,,0.00,VWS V14.01,2013-11-07 13:29:00,
2013-11-07 07:34:00,32.5,32.5,30.40,NNW,329,2.0,2.0,100,0.00,,,0.00,VWS V14.01,2013-11-07 13:34:00,
2013-11-07 07:39:00,32.5,32.5,30.40,NNW,330,0.0,3.0,100,0.00,,,0.00,VWS V14.01,2013-11-07 13:39:00,
2013-11-07 07:44:00,32.5,32.5,30.40,NNW,339,0.0,3.0,100,0.00,,,0.00,VWS V14.01,2013-11-07 13:44:00,
2013-11-07 07:49:00,32.4,32.4,30.41,NNW,339,0.0,5.0,100,0.00,,,0.00,VWS V14.01,2013-11-07 13:49:00,
2013-11-07 07:54:00,32.4,32.4,30.41,NNW,339,0.0,5.0,100,0.00,,,0.00,VWS V14.01,2013-11-07 13:54:00,
2013-11-07 07:59:00,32.5,32.5,30.41,NNW,339,2.0,5.0,100,0.00,,,0.00,VWS V14.01,2013-11-07 13:59:00,
2013-11-07 08:04:00,32.7,32.7,30.41,NNW,339,2.0,2.0,100,0.00,,,0.00,VWS V14.01,2013-11-07 14:04:00,
2013-11-07 08:09:00,32.8,32.8,30.41,NNW,339,0.0,3.0,100,0.00,,,0.00,VWS V14.01,2013-11-07 14:09:00,
2013-11-07 08:14:00,33.1,33.1,30.41,NNW,346,1.0,5.0,100,0.00,,,0.00,VWS V14.01,2013-11-07 14:14:00,
2013-11-07 08:19:00,33.5,33.5,30.42,NNW,332,3.0,6.0,100,0.00,,,0.00,VWS V14.01,2013-11-07 14:19:00,
2013-11-07 08:24:00,33.8,33.8,30.42,North,359,1.0,7.0,100,0.00,,,0.00,VWS V14.01,2013-11-07 14:24:00,
2013-11-07 08:29:00,34.1,34.1,30.42,North,359,0.0,7.0,100,0.00,,,0.00,VWS V14.01,2013-11-07 14:29:00,
2013-11-07 08:34:00,34.3,34.3,30.43,North,359,4.0,6.0,100,0.00,,,0.00,VWS V14.01,2013-11-07 14:34:00,
2013-11-07 08:39:00,34.1,34.1,30.43,NNW,339,5.0,8.0,100,0.00,,,0.00,VWS V14.01,2013-11-07 14:39:00,
2013-11-07 08:44:00,34.1,34.1,30.43,North,359,3.0,8.0,100,0.00,,,0.00,VWS V14.01,2013-11-07 14:44:00,
2013-11-07 08:49:00,34.1,34.1,30.42,NNW,337,0.0,2.0,100,0.00,,,0.00,VWS V14.01,2013-11-07 14:49:00,
2013-11-07 08:54:00,34.4,34.4,30.42,North,354,2.0,6.0,100,0.00,,,0.00,VWS V14.01,2013-11-07 14:54:00,
2013-11-07 08:59:00,34.7,34.7,30.42,North,354,2.0,7.0,100,0.00,,,0.00,VWS V14.01,2013-11-07 14:59:00,
2013-11-07 09:04:00,35.0,35.0,30.42,NNW,343,3.0,5.0,100,0.00,,,0.00,VWS V14.01,2013-11-07 15:04:00,
2013-11-07 09:09:00,35.3,35.3,30.42,North,354,5.0,7.0,100,0.00,,,0.00,VWS V14.01,2013-11-07 15:09:00,
2013-11-07 09:14:00,35.6,35.6,30.42,North,0,5.0,11.0,100,0.00,,,0.00,VWS V14.01,2013-11-07 15:14:00,
2013-11-07 09:19:00,36.0,36.0,30.41,North,359,5.0,9.0,100,0.00,,,0.00,VWS V14.01,2013-11-07 15:19:00,
2013-11-07 09:24:00,36.3,36.3,30.41,North,0,5.0,9.0,100,0.00,,,0.00,VWS V14.01,2013-11-07 15:24:00,
2013-11-07 09:29:00,36.5,36.2,30.41,North,359,6.0,10.0,99,0.00,,,0.00,VWS V14.01,2013-11-07 15:29:00,
2013-11-07 09:34:00,36.5,36.2,30.42,North,359,7.0,7.0,99,0.00,,,0.00,VWS V14.01,2013-11-07 15:34:00,
2013-11-07 09:39:00,36.5,35.7,30.42,North,354,6.0,10.0,97,0.00,,,0.00,VWS V14.01,2013-11-07 15:39:00,
2013-11-07 09:44:00,36.6,36.6,30.42,North,359,7.0,10.0,100,0.00,,,0.00,VWS V14.01,2013-11-07 15:44:00,
2013-11-07 09:49:00,36.8,36.8,30.42,North,359,6.0,7.0,100,0.00,,,0.00,VWS V14.01,2013-11-07 15:49:00,
2013-11-07 09:54:00,37.0,37.0,30.42,North,359,5.0,7.0,100,0.00,,,0.00,VWS V14.01,2013-11-07 15:54:00,
2013-11-07 09:59:00,37.5,36.5,30.42,North,359,7.0,8.0,96,0.00,,,0.00,VWS V14.01,2013-11-07 15:59:00,
2013-11-07 10:04:00,37.8,36.2,30.41,North,359,5.0,7.0,94,0.00,,,0.00,VWS V14.01,2013-11-07 16:04:00,
2013-11-07 10:09:00,38.0,36.2,30.41,North,0,5.0,8.0,93,0.00,,,0.00,VWS V14.01,2013-11-07 16:09:00,
2013-11-07 10:14:00,38.3,36.5,30.41,North,0,6.0,8.0,93,0.00,,,0.00,VWS V14.01,2013-11-07 16:14:00,
2013-11-07 10:19:00,38.5,36.4,30.41,North,0,2.0,6.0,92,0.00,,,0.00,VWS V14.01,2013-11-07 16:19:00,
2013-11-07 10:24:00,38.8,35.6,30.41,North,0,4.0,7.0,88,0.00,,,0.00,VWS V14.01,2013-11-07 16:24:00,
2013-11-07 10:29:00,39.2,36.2,30.41,North,0,0.0,7.0,89,0.00,,,0.00,VWS V14.01,2013-11-07 16:29:00,
2013-11-07 10:34:00,39.8,35.7,30.41,North,0,3.0,5.0,85,0.00,,,0.00,VWS V14.01,2013-11-07 16:34:00,
2013-11-07 10:39:00,39.9,34.5,30.41,North,0,5.0,5.0,81,0.00,,,0.00,VWS V14.01,2013-11-07 16:39:00,
2013-11-07 10:44:00,40.3,34.0,30.41,North,0,1.0,5.0,78,0.00,,,0.00,VWS V14.01,2013-11-07 16:44:00,
2013-11-07 10:49:00,40.6,33.6,30.40,North,0,5.0,5.0,76,0.00,,,0.00,VWS V14.01,2013-11-07 16:49:00,
2013-11-07 10:54:00,40.9,33.9,30.40,North,0,0.0,5.0,76,0.00,,,0.00,VWS V14.01,2013-11-07 16:54:00,
2013-11-07 10:59:00,41.5,33.5,30.40,North,0,0.0,5.0,73,0.00,,,0.00,VWS V14.01,2013-11-07 16:59:00,
2013-11-07 11:04:00,41.8,32.0,30.40,North,0,2.0,5.0,68,0.00,,,0.00,VWS V14.01,2013-11-07 17:04:00,
2013-11-07 11:09:00,41.6,31.5,30.40,North,0,3.0,5.0,67,0.00,,,0.00,VWS V14.01,2013-11-07 17:09:00,
2013-11-07 11:14:00,41.9,32.5,30.40,North,0,0.0,5.0,69,0.00,,,0.00,VWS V14.01,2013-11-07 17:14:00,
2013-11-07 11:19:00,42.2,30.9,30.40,North,0,1.0,2.0,64,0.00,,,0.00,VWS V14.01,2013-11-07 17:19:00,
2013-11-07 11:24:00,42.2,29.7,30.40,North,0,1.0,3.0,61,0.00,,,0.00,VWS V14.01,2013-11-07 17:24:00,
2013-11-07 11:29:00,42.3,29.4,30.40,North,0,0.0,3.0,60,0.00,,,0.00,VWS V14.01,2013-11-07 17:29:00,
2013-11-07 11:34:00,42.8,30.7,30.40,North,0,2.0,2.0,62,0.00,,,0.00,VWS V14.01,2013-11-07 17:34:00,
2013-11-07 11:39:00,42.5,29.6,30.40,North,0,5.0,6.0,60,0.00,,,0.00,VWS V14.01,2013-11-07 17:39:00,
2013-11-07 11:44:00,42.6,29.7,30.40,North,0,2.0,6.0,60,0.00,,,0.00,VWS V14.01,2013-11-07 17:44:00,
2013-11-07 11:49:00,42.9,28.7,30.40,North,0,2.0,5.0,57,0.00,,,0.00,VWS V14.01,2013-11-07 17:49:00,
2013-11-07 11:54:00,43.1,29.8,30.40,North,6,2.0,6.0,59,0.00,,,0.00,VWS V14.01,2013-11-07 17:54:00,
2013-11-07 11:58:00,43.5,28.4,30.40,North,6,3.0,6.0,55,0.00,,,0.00,VWS V14.01,2013-11-07 17:58:00,
2013-11-07 12:03:00,43.1,28.5,30.39,North,7,5.0,5.0,56,0.00,,,0.00,VWS V14.01,2013-11-07 18:03:00,
2013-11-07 12:08:00,43.3,31.6,30.39,North,8,1.0,5.0,63,0.00,,,0.00,VWS V14.01,2013-11-07 18:08:00,
2013-11-07 12:13:00,43.3,30.4,30.39,North,11,5.0,7.0,60,0.00,,,0.00,VWS V14.01,2013-11-07 18:13:00,
2013-11-07 12:18:00,43.8,31.2,30.37,NNE,17,3.0,3.0,61,0.00,,,0.00,VWS V14.01,2013-11-07 18:18:00,
2013-11-07 12:23:00,43.9,30.1,30.37,NNE,17,3.0,5.0,58,0.00,,,0.00,VWS V14.01,2013-11-07 18:23:00,
2013-11-07 12:28:00,44.1,29.4,30.37,NNE,17,3.0,5.0,56,0.00,,,0.00,VWS V14.01,2013-11-07 18:28:00,
2013-11-07 12:33:00,44.3,29.6,30.36,NNE,17,1.0,1.0,56,0.00,,,0.00,VWS V14.01,2013-11-07 18:33:00,
2013-11-07 12:38:00,44.6,30.3,30.36,NNE,18,2.0,5.0,57,0.00,,,0.00,VWS V14.01,2013-11-07 18:38:00,
2013-11-07 12:43:00,44.6,28.5,30.36,NNE,18,3.0,5.0,53,0.00,,,0.00,VWS V14.01,2013-11-07 18:43:00,
2013-11-07 12:48:00,44.6,28.1,30.35,NNE,18,5.0,5.0,52,0.00,,,0.00,VWS V14.01,2013-11-07 18:48:00,
2013-11-07 12:53:00,44.8,29.2,30.35,NNE,18,3.0,5.0,54,0.00,,,0.00,VWS V14.01,2013-11-07 18:53:00,
2013-11-07 12:58:00,44.8,28.3,30.35,NNE,20,3.0,5.0,52,0.00,,,0.00,VWS V14.01,2013-11-07 18:58:00,
2013-11-07 13:03:00,44.8,28.7,30.34,NNE,24,5.0,6.0,53,0.00,,,0.00,VWS V14.01,2013-11-07 19:03:00,
2013-11-07 13:08:00,45.1,29.9,30.34,NNE,25,3.0,7.0,55,0.00,,,0.00,VWS V14.01,2013-11-07 19:08:00,
2013-11-07 13:13:00,45.5,31.2,30.34,NNE,25,0.0,7.0,57,0.00,,,0.00,VWS V14.01,2013-11-07 19:13:00,
2013-11-07 13:18:00,45.8,27.7,30.33,NNE,25,2.0,2.0,49,0.00,,,0.00,VWS V14.01,2013-11-07 19:18:00,
2013-11-07 13:23:00,45.7,27.1,30.33,NNE,25,1.0,5.0,48,0.00,,,0.00,VWS V14.01,2013-11-07 19:23:00,
2013-11-07 13:28:00,46.1,28.0,30.33,NNE,25,2.0,5.0,49,0.00,,,0.00,VWS V14.01,2013-11-07 19:28:00,
2013-11-07 13:33:00,46.5,28.9,30.32,NNE,25,2.0,2.0,50,0.00,,,0.00,VWS V14.01,2013-11-07 19:33:00,
2013-11-07 13:38:00,46.8,29.2,30.32,NNE,25,2.0,4.0,50,0.00,,,0.00,VWS V14.01,2013-11-07 19:38:00,
2013-11-07 13:43:00,46.8,28.7,30.32,NNE,25,5.0,5.0,49,0.00,,,0.00,VWS V14.01,2013-11-07 19:43:00,
2013-11-07 13:48:00,47.0,28.3,30.32,NNE,25,2.0,2.0,48,0.00,,,0.00,VWS V14.01,2013-11-07 19:48:00,
2013-11-07 13:53:00,47.1,28.9,30.32,NNE,25,2.0,5.0,49,0.00,,,0.00,VWS V14.01,2013-11-07 19:53:00,
2013-11-07 13:58:00,47.3,26.5,30.32,NNE,27,2.0,6.0,44,0.00,,,0.00,VWS V14.01,2013-11-07 19:58:00,
2013-11-07 14:03:00,47.4,24.3,30.31,NNE,28,2.0,4.0,40,0.00,,,0.00,VWS V14.01,2013-11-07 20:03:00,
2013-11-07 14:08:00,47.6,26.2,30.31,NNE,30,2.0,5.0,43,0.00,,,0.00,VWS V14.01,2013-11-07 20:08:00,
2013-11-07 14:13:00,48.0,26.0,30.31,NNE,30,1.0,5.0,42,0.00,,,0.00,VWS V14.01,2013-11-07 20:13:00,
2013-11-07 14:18:00,47.9,25.4,30.29,NNE,30,2.0,5.0,41,0.00,,,0.00,VWS V14.01,2013-11-07 20:18:00,
2013-11-07 14:23:00,47.9,24.8,30.29,NNE,30,5.0,5.0,40,0.00,,,0.00,VWS V14.01,2013-11-07 20:23:00,
2013-11-07 14:28:00,48.3,26.3,30.29,NNE,30,1.0,5.0,42,0.00,,,0.00,VWS V14.01,2013-11-07 20:28:00,
2013-11-07 14:33:00,48.3,28.0,30.28,NNE,30,3.0,3.0,45,0.00,,,0.00,VWS V14.01,2013-11-07 20:33:00,
2013-11-07 14:38:00,48.5,26.5,30.28,NNE,30,2.0,5.0,42,0.00,,,0.00,VWS V14.01,2013-11-07 20:38:00,
2013-11-07 14:43:00,48.5,25.3,30.28,NNE,30,4.0,5.0,40,0.00,,,0.00,VWS V14.01,2013-11-07 20:43:00,
2013-11-07 14:48:00,48.6,27.1,30.28,NNE,30,0.0,0.0,43,0.00,,,0.00,VWS V14.01,2013-11-07 20:48:00,
2013-11-07 14:53:00,49.1,24.0,30.28,NNE,30,2.0,5.0,37,0.00,,,0.00,VWS V14.01,2013-11-07 20:53:00,
2013-11-07 14:58:00,49.2,23.4,30.28,NNE,30,1.0,5.0,36,0.00,,,0.00,VWS V14.01,2013-11-07 20:58:00,
2013-11-07 15:03:00,49.4,25.5,30.27,NNE,30,2.0,3.0,39,0.00,,,0.00,VWS V14.01,2013-11-07 21:03:00,
2013-11-07 15:08:00,49.8,22.6,30.27,NNE,30,2.0,3.0,34,0.00,,,0.00,VWS V14.01,2013-11-07 21:08:00,
2013-11-07 15:13:00,50.1,22.1,30.27,NNE,30,1.0,5.0,33,0.00,,,0.00,VWS V14.01,2013-11-07 21:13:00,
2013-11-07 15:18:00,50.7,24.1,30.25,SSW,208,6.0,7.0,35,0.00,,,0.00,VWS V14.01,2013-11-07 21:18:00,
2013-11-07 15:23:00,51.3,17.6,30.25,SSW,209,3.0,7.0,26,0.00,,,0.00,VWS V14.01,2013-11-07 21:23:00,
2013-11-07 15:28:00,51.9,19.0,30.25,SSW,196,7.0,7.0,27,0.00,,,0.00,VWS V14.01,2013-11-07 21:28:00,
2013-11-07 15:33:00,52.0,17.3,30.25,SW,223,3.0,3.0,25,0.00,,,0.00,VWS V14.01,2013-11-07 21:33:00,
2013-11-07 15:38:00,52.2,20.1,30.25,SSW,205,5.0,7.0,28,0.00,,,0.00,VWS V14.01,2013-11-07 21:38:00,
2013-11-07 15:43:00,52.3,20.2,30.25,SSE,161,6.0,7.0,28,0.00,,,0.00,VWS V14.01,2013-11-07 21:43:00,
2013-11-07 15:48:00,52.3,19.3,30.24,SW,217,5.0,5.0,27,0.00,,,0.00,VWS V14.01,2013-11-07 21:48:00,
2013-11-07 15:53:00,52.0,19.9,30.24,SW,217,6.0,8.0,28,0.00,,,0.00,VWS V14.01,2013-11-07 21:53:00,
2013-11-07 15:58:00,52.2,19.2,30.24,SW,229,5.0,8.0,27,0.00,,,0.00,VWS V14.01,2013-11-07 21:58:00,
2013-11-07 16:03:00,52.2,20.1,30.24,SSW,209,5.0,7.0,28,0.00,,,0.00,VWS V14.01,2013-11-07 22:03:00,
2013-11-07 16:08:00,52.0,19.1,30.24,SSW,202,5.0,8.0,27,0.00,,,0.00,VWS V14.01,2013-11-07 22:08:00,
2013-11-07 16:13:00,51.9,21.5,30.24,SSW,208,5.0,8.0,30,0.00,,,0.00,VWS V14.01,2013-11-07 22:13:00,
2013-11-07 16:18:00,51.7,21.3,30.25,SSW,202,7.0,7.0,30,0.00,,,0.00,VWS V14.01,2013-11-07 22:18:00,
2013-11-07 16:23:00,51.7,21.3,30.25,SSW,203,6.0,7.0,30,0.00,,,0.00,VWS V14.01,2013-11-07 22:23:00,
2013-11-07 16:28:00,51.4,24.7,30.25,SSW,203,5.0,8.0,35,0.00,,,0.00,VWS V14.01,2013-11-07 22:28:00,
2013-11-07 16:33:00,51.1,23.0,30.25,SSW,203,4.0,5.0,33,0.00,,,0.00,VWS V14.01,2013-11-07 22:33:00,
2013-11-07 16:38:00,50.8,24.8,30.25,SSW,206,7.0,7.0,36,0.00,,,0.00,VWS V14.01,2013-11-07 22:38:00,
2013-11-07 16:43:00,50.5,23.9,30.25,SW,215,6.0,7.0,35,0.00,,,0.00,VWS V14.01,2013-11-07 22:43:00,
2013-11-07 16:48:00,50.4,25.1,30.26,SSW,208,5.0,5.0,37,0.00,,,0.00,VWS V14.01,2013-11-07 22:48:00,
2013-11-07 16:53:00,50.1,24.9,30.26,SSW,212,5.0,8.0,37,0.00,,,0.00,VWS V14.01,2013-11-07 22:53:00,
2013-11-07 16:58:00,49.9,24.7,30.26,SSW,203,5.0,8.0,37,0.00,,,0.00,VWS V14.01,2013-11-07 22:58:00,
2013-11-07 17:03:00,49.5,26.8,30.25,SSW,205,5.0,5.0,41,0.00,,,0.00,VWS V14.01,2013-11-07 23:03:00,
2013-11-07 17:08:00,48.9,28.0,30.25,SSW,206,5.0,7.0,44,0.00,,,0.00,VWS V14.01,2013-11-07 23:08:00,
2013-11-07 17:13:00,48.6,27.7,30.25,SSW,206,5.0,7.0,44,0.00,,,0.00,VWS V14.01,2013-11-07 23:13:00,
2013-11-07 17:18:00,48.3,28.0,30.26,SSW,206,5.0,5.0,45,0.00,,,0.00,VWS V14.01,2013-11-07 23:18:00,
2013-11-07 17:23:00,47.9,27.6,30.26,SSW,206,4.0,6.0,45,0.00,,,0.00,VWS V14.01,2013-11-07 23:23:00,
2013-11-07 17:28:00,47.4,28.7,30.26,SSW,206,2.0,6.0,48,0.00,,,0.00,VWS V14.01,2013-11-07 23:28:00,
2013-11-07 17:33:00,47.0,27.8,30.26,SSW,206,2.0,2.0,47,0.00,,,0.00,VWS V14.01,2013-11-07 23:33:00,
2013-11-07 17:38:00,46.5,27.4,30.26,SSW,206,2.0,2.0,47,0.00,,,0.00,VWS V14.01,2013-11-07 23:38:00,
2013-11-07 17:43:00,46.2,28.1,30.26,SSW,206,1.0,2.0,49,0.00,,,0.00,VWS V14.01,2013-11-07 23:43:00,
2013-11-07 17:48:00,46.0,28.4,30.26,SSW,206,0.0,2.0,50,0.00,,,0.00,VWS V14.01,2013-11-07 23:48:00,
2013-11-07 17:53:00,45.7,29.1,30.26,SSW,206,1.0,2.0,52,0.00,,,0.00,VWS V14.01,2013-11-07 23:53:00,
2013-11-07 17:58:00,45.5,29.4,30.26,SSW,206,1.0,2.0,53,0.00,,,0.00,VWS V14.01,2013-11-07 23:58:00,
2013-11-07 18:03:00,45.2,30.0,30.25,SSW,206,0.0,0.0,55,0.00,,,0.00,VWS V14.01,2013-11-08 00:03:00,
2013-11-07 18:08:00,44.9,29.7,30.25,SSW,206,0.0,2.0,55,0.00,,,0.00,VWS V14.01,2013-11-08 00:08:00,
2013-11-07 18:13:00,44.8,30.1,30.25,SSW,206,2.0,2.0,56,0.00,,,0.00,VWS V14.01,2013-11-08 00:13:00,
2013-11-07 18:18:00,44.6,29.5,30.25,SSW,206,2.0,5.0,55,0.00,,,0.00,VWS V14.01,2013-11-08 00:18:00,
2013-11-07 18:23:00,44.3,30.5,30.25,SSW,206,2.0,5.0,58,0.00,,,0.00,VWS V14.01,2013-11-08 00:23:00,
2013-11-07 18:28:00,44.2,30.4,30.25,SSW,206,1.0,5.0,58,0.00,,,0.00,VWS V14.01,2013-11-08 00:28:00,
2013-11-07 18:33:00,43.9,30.5,30.25,SSW,206,1.0,2.0,59,0.00,,,0.00,VWS V14.01,2013-11-08 00:33:00,
2013-11-07 18:38:00,43.9,30.9,30.25,SSW,206,2.0,2.0,60,0.00,,,0.00,VWS V14.01,2013-11-08 00:38:00,
2013-11-07 18:43:00,43.6,30.6,30.25,SSW,206,1.0,2.0,60,0.00,,,0.00,VWS V14.01,2013-11-08 00:43:00,
2013-11-07 18:48:00,43.6,31.5,30.25,SSW,206,1.0,1.0,62,0.00,,,0.00,VWS V14.01,2013-11-08 00:48:00,
2013-11-07 18:53:00,43.6,31.5,30.25,SSW,206,1.0,3.0,62,0.00,,,0.00,VWS V14.01,2013-11-08 00:53:00,
2013-11-07 18:58:00,43.5,31.8,30.25,SSW,206,2.0,3.0,63,0.00,,,0.00,VWS V14.01,2013-11-08 00:58:00,
2013-11-07 19:03:00,43.3,32.0,30.24,SSW,206,1.0,2.0,64,0.00,,,0.00,VWS V14.01,2013-11-08 01:03:00,
2013-11-07 19:08:00,43.5,31.8,30.24,SSW,206,1.0,3.0,63,0.00,,,0.00,VWS V14.01,2013-11-08 01:08:00,
2013-11-07 19:13:00,43.5,32.2,30.24,SSW,206,2.0,3.0,64,0.00,,,0.00,VWS V14.01,2013-11-08 01:13:00,
2013-11-07 19:18:00,43.3,32.3,30.23,SSW,206,1.0,1.0,65,0.00,,,0.00,VWS V14.01,2013-11-08 01:18:00,
2013-11-07 19:23:00,43.3,32.0,30.23,SSW,206,1.0,3.0,64,0.00,,,0.00,VWS V14.01,2013-11-08 01:23:00,
2013-11-07 19:28:00,43.2,32.2,30.23,SSW,206,1.0,3.0,65,0.00,,,0.00,VWS V14.01,2013-11-08 01:28:00,
2013-11-07 19:33:00,43.1,32.5,30.22,SSW,206,2.0,2.0,66,0.00,,,0.00,VWS V14.01,2013-11-08 01:33:00,
2013-11-07 19:38:00,42.9,32.7,30.22,SSW,206,2.0,2.0,67,0.00,,,0.00,VWS V14.01,2013-11-08 01:38:00,
2013-11-07 19:43:00,42.8,33.0,30.22,SSW,206,2.0,3.0,68,0.00,,,0.00,VWS V14.01,2013-11-08 01:43:00,
2013-11-07 19:48:00,42.6,32.8,30.22,SSW,206,2.0,2.0,68,0.00,,,0.00,VWS V14.01,2013-11-08 01:48:00,
2013-11-07 19:53:00,42.6,33.2,30.22,SSW,206,0.0,2.0,69,0.00,,,0.00,VWS V14.01,2013-11-08 01:53:00,
2013-11-07 19:58:00,42.5,33.4,30.22,SSW,206,2.0,5.0,70,0.00,,,0.00,VWS V14.01,2013-11-08 01:58:00,
2013-11-07 20:03:00,42.3,33.6,30.21,SSW,206,2.0,2.0,71,0.00,,,0.00,VWS V14.01,2013-11-08 02:03:00,
2013-11-07 20:08:00,42.2,33.5,30.21,SSW,206,2.0,3.0,71,0.00,,,0.00,VWS V14.01,2013-11-08 02:08:00,
2013-11-07 20:13:00,42.1,33.7,30.21,SSW,206,2.0,5.0,72,0.00,,,0.00,VWS V14.01,2013-11-08 02:13:00,
2013-11-07 20:18:00,41.9,34.2,30.20,SSW,206,2.0,3.0,74,0.00,,,0.00,VWS V14.01,2013-11-08 02:18:00,
2013-11-07 20:23:00,41.9,34.6,30.20,SSW,206,3.0,5.0,75,0.00,,,0.00,VWS V14.01,2013-11-08 02:23:00,
2013-11-07 20:28:00,41.9,35.2,30.20,SSW,206,3.0,5.0,77,0.00,,,0.00,VWS V14.01,2013-11-08 02:28:00,
2013-11-07 20:33:00,41.9,35.2,30.19,South,184,5.0,6.0,77,0.00,,,0.00,VWS V14.01,2013-11-08 02:33:00,
2013-11-07 20:38:00,42.1,35.1,30.19,SSE,168,6.0,7.0,76,0.00,,,0.00,VWS V14.01,2013-11-08 02:38:00,
2013-11-07 20:43:00,42.2,34.5,30.19,South,171,3.0,7.0,74,0.00,,,0.00,VWS V14.01,2013-11-08 02:43:00,
2013-11-07 20:48:00,42.2,34.5,30.19,South,176,7.0,7.0,74,0.00,,,0.00,VWS V14.01,2013-11-08 02:48:00,
2013-11-07 20:53:00,42.2,34.9,30.19,South,182,3.0,7.0,75,0.00,,,0.00,VWS V14.01,2013-11-08 02:53:00,
2013-11-07 20:58:00,42.2,34.5,30.19,South,175,5.0,7.0,74,0.00,,,0.00,VWS V14.01,2013-11-08 02:58:00,
2013-11-07 21:03:00,42.2,34.5,30.19,South,176,2.0,3.0,74,0.00,,,0.00,VWS V14.01,2013-11-08 03:03:00,
2013-11-07 21:08:00,42.2,34.5,30.19,South,176,3.0,7.0,74,0.00,,,0.00,VWS V14.01,2013-11-08 03:08:00,
2013-11-07 21:13:00,42.2,34.5,30.19,SSE,161,3.0,7.0,74,0.00,,,0.00,VWS V14.01,2013-11-08 03:13:00,
2013-11-07 21:18:00,42.1,34.8,30.17,SSE,162,3.0,3.0,75,0.00,,,0.00,VWS V14.01,2013-11-08 03:18:00,
2013-11-07 21:23:00,42.1,34.8,30.17,SSE,157,2.0,6.0,75,0.00,,,0.00,VWS V14.01,2013-11-08 03:23:00,
2013-11-07 21:28:00,42.2,35.2,30.17,South,181,4.0,6.0,76,0.00,,,0.00,VWS V14.01,2013-11-08 03:28:00,
2013-11-07 21:33:00,42.3,34.6,30.16,SSE,168,2.0,4.0,74,0.00,,,0.00,VWS V14.01,2013-11-08 03:33:00,
2013-11-07 21:38:00,42.5,34.8,30.16,South,182,3.0,7.0,74,0.00,,,0.00,VWS V14.01,2013-11-08 03:38:00,
2013-11-07 21:43:00,42.5,33.8,30.16,South,182,2.0,8.0,71,0.00,,,0.00,VWS V14.01,2013-11-08 03:43:00,
2013-11-07 21:48:00,42.6,34.2,30.15,SSE,165,5.0,7.0,72,0.00,,,0.00,VWS V14.01,2013-11-08 03:48:00,
2013-11-07 21:53:00,42.9,34.2,30.15,SSW,196,9.0,10.0,71,0.00,,,0.00,VWS V14.01,2013-11-08 03:53:00,
2013-11-07 21:58:00,43.1,33.3,30.15,South,174,7.0,12.0,68,0.00,,,0.00,VWS V14.01,2013-11-08 03:58:00,
2013-11-07 22:03:00,43.1,33.6,30.15,South,185,7.0,7.0,69,0.00,,,0.00,VWS V14.01,2013-11-08 04:03:00,
2013-11-07 22:08:00,42.9,33.4,30.15,South,179,3.0,10.0,69,0.00,,,0.00,VWS V14.01,2013-11-08 04:08:00,
2013-11-07 22:13:00,43.1,33.6,30.15,South,186,6.0,11.0,69,0.00,,,0.00,VWS V14.01,2013-11-08 04:13:00,
2013-11-07 22:18:00,43.2,34.1,30.13,South,172,10.0,10.0,70,0.00,,,0.00,VWS V14.01,2013-11-08 04:18:00,
2013-11-07 22:23:00,43.2,34.1,30.13,South,186,5.0,10.0,70,0.00,,,0.00,VWS V14.01,2013-11-08 04:23:00,
2013-11-07 22:28:00,43.2,34.1,30.13,SSW,193,6.0,10.0,70,0.00,,,0.00,VWS V14.01,2013-11-08 04:28:00,
2013-11-07 22:33:00,43.1,34.0,30.12,South,178,5.0,5.0,70,0.00,,,0.00,VWS V14.01,2013-11-08 04:33:00,
2013-11-07 22:38:00,42.9,33.8,30.12,South,172,7.0,9.0,70,0.00,,,0.00,VWS V14.01,2013-11-08 04:38:00,
2013-11-07 22:43:00,42.8,34.4,30.12,South,188,8.0,10.0,72,0.00,,,0.00,VWS V14.01,2013-11-08 04:43:00,
2013-11-07 22:48:00,42.6,34.9,30.12,SSW,213,6.0,10.0,74,0.00,,,0.00,VWS V14.01,2013-11-08 04:48:00,
2013-11-07 22:53:00,42.6,35.2,30.12,SSW,193,7.0,12.0,75,0.00,,,0.00,VWS V14.01,2013-11-08 04:53:00,
2013-11-07 22:58:00,42.8,35.1,30.12,South,186,8.0,12.0,74,0.00,,,0.00,VWS V14.01,2013-11-08 04:58:00,
2013-11-07 23:01:00,42.8,35.1,30.12,South,188,9.0,12.0,74,0.00,,,0.00,VWS V14.01,2013-11-08 05:01:00,
2013-11-07 23:06:00,42.9,34.8,30.11,South,184,6.0,12.0,73,0.00,,,0.00,VWS V14.01,2013-11-08 05:06:00,
2013-11-07 23:11:00,42.9,35.2,30.11,South,188,6.0,12.0,74,0.00,,,0.00,VWS V14.01,2013-11-08 05:11:00,
2013-11-07 23:16:00,42.8,34.8,30.11,SSW,200,7.0,12.0,73,0.00,,,0.00,VWS V14.01,2013-11-08 05:16:00,
2013-11-07 23:21:00,42.8,35.1,30.10,South,186,5.0,9.0,74,0.00,,,0.00,VWS V14.01,2013-11-08 05:21:00,
2013-11-07 23:26:00,42.5,35.5,30.10,South,186,9.0,11.0,76,0.00,,,0.00,VWS V14.01,2013-11-08 05:26:00,
2013-11-07 23:31:00,42.3,35.6,30.10,SSW,193,7.0,11.0,77,0.00,,,0.00,VWS V14.01,2013-11-08 05:31:00,
2013-11-07 23:36:00,42.2,36.5,30.09,South,191,6.0,8.0,80,0.00,,,0.00,VWS V14.01,2013-11-08 05:36:00,
2013-11-07 23:41:00,42.1,37.6,30.09,South,186,5.0,14.0,84,0.00,,,0.00,VWS V14.01,2013-11-08 05:41:00,
2013-11-07 23:46:00,42.2,37.7,30.09,South,188,10.0,14.0,84,0.00,,,0.00,VWS V14.01,2013-11-08 05:46:00,
2013-11-07 23:51:00,42.2,38.3,30.08,South,184,10.0,14.0,86,0.00,,,0.00,VWS V14.01,2013-11-08 05:51:00,
2013-11-07 23:56:00,42.2,38.9,30.08,South,189,10.0,15.0,88,0.00,,,0.00,VWS V14.01,2013-11-08 05:56:00,